Temperature
20 21 21 22 23 23 23 24 24 24 23 24 24 25 25 24 24 24 24 24 24 23 23 22 21 21 20 20 20 19 19 18 18 17 16 16 15 15 14 14 13 13 13 13
21 21 22 22 22 22 23 24 24 23 23 24 24 25 25 25 24 24 24 24 24 23 23 22 21 21 20 20 20 19 19 18 18 17 17 16 15 15 14 14 13 13 13 13
22 22 22 22 22 23 23 24 24 23 23 24 25 25 25 25 25 24 24 24 24 23 23 22 21 21 20 20 20 19 19 19 18 18 17 16 15 15 14 14 14 13 13 13
22 22 22 22 22 23 23 23 23 24 25 24 25 24 25 25 25 25 24 23 23 23 22 22 21 21 20 20 20 19 19 18 18 18 17 16 16 15 15 14 14 13 13 13
22 22 22 22 23 23 23 23 24 24 25 25 25 26 25 25 25 25 24 23 22 22 22 21 21 21 21 20 20 20 19 19 18 18 17 16 16 15 15 14 14 14 13 13
22 22 23 23 23 23 22 23 24 24 26 24 24 25 24 25 24 24 24 23 22 22 21 21 21 21 21 21 21 20 19 19 18 18 17 16 16 15 15 14 14 14 14 13
23 23 23 23 23 22 23 24 24 24 24 24 24 25 24 24 23 23 23 22 21 21 21 21 21 21 21 21 20 20 20 19 18 18 17 16 16 15 15 15 14 14 14 14
23 23 24 23 24 24 24 25 25 24 24 24 24 25 24 23 22 22 22 22 21 20 20 20 20 20 20 20 20 20 19 19 18 18 17 16 16 16 15 15 14 14 14 14
24 24 24 23 24 25 25 25 25 26 25 25 25 25 24 24 23 22 21 21 20 20 19 19 19 20 20 20 20 20 19 18 18 18 17 17 16 16 15 15 15 14 14 14
26 24 24 24 24 23 25 25 25 25 24 24 24 24 24 24 23 22 22 20 19 19 19 19 19 19 20 20 20 19 19 18 18 18 17 17 17 16 16 15 15 15 14 14
25 25 24 24 24 25 24 24 25 25 25 24 23 24 23 23 22 22 21 20 19 18 18 18 18 19 19 19 19 19 19 18 18 18 17 17 16 16 16 15 15 15 14 14
24 26 25 24 24 24 25 25 25 25 24 24 24 23 22 21 21 20 19 18 18 17 17 17 18 18 19 19 19 19 19 18 18 18 17 17 16 16 16 15 15 15 15 15
24 25 24 24 24 24 24 23 24 25 25 24 24 23 21 21 20 19 18 18 18 17 17 17 17 18 18 18 18 18 18 18 18 17 17 16 16 16 16 15 15 15 15 15
22 25 25 24 24 24 24 23 23 25 24 24 24 23 22 21 20 19 18 18 18 17 17 17 17 17 17 17 17 17 18 18 17 17 17 16 16 16 15 15 15 15 15 15
24 25 24 24 23 23 24 23 23 24 25 25 24 23 23 22 20 19 18 18 17 17 16 16 16 16 16 17 17 17 17 17 17 17 16 16 15 15 15 15 15 15 15 15
24 24 24 23 22 23 23 23 23 23 23 24 23 23 23 20 19 19 18 17 17 16 16 16 16 16 16 16 16 16 16 16 16 16 16 16 15 15 15 15 15 15 15 15
23 24 23 24 22 22 23 24 23 23 23 23 23 23 21 20 19 18 17 17 17 16 15 15 15 15 15 15 15 15 15 15 15 15 15 15 15 15 15 15 15 15 15 15
22 23 23 23 22 22 24 22 22 22 22 22 22 21 20 19 17 16 16 16 16 15 15 15 15 15 15 15 15 15 15 15 15 15 14 14 15 15 15 15 15 15 15 15
21 22 22 23 22 23 22 21 21 22 22 21 21 20 19 18 17 17 15 15 15 15 14 14 14 14 14 14 14 14 14 14 14 14 14 14 14 14 14 14 14 14 14 14
18 20 22 22 22 22 23 21 20 22 22 21 20 19 18 18 20 19 15 14 14 14 14 14 14 14 13 13 13 13 13 13 13 13 13 13 13 13 14 14 14 14 14 14
19 20 21 21 22 23 22 19 20 21 22 20 19 19 18 19 20 17 15 14 14 14 13 13 13 13 13 13 12 13 13 12 12 12 12 12 12 13 13 13 13 13 14 14
21 20 21 21 21 22 19 19 21 22 19 19 18 18 18 18 16 15 14 14 13 13 13 13 13 12 12 12 12 12 12 11 11 11 11 11 12 12 12 12 13 13 13 13
20 21 21 21 22 19 18 19 18 18 19 18 18 17 17 16 15 15 14 13 13 13 13 12 12 12 12 12 11 11 11 11 11 11 11 11 11 11 11 11 11 12 12 12
19 17 19 19 20 19 17 17 16 17 17 17 16 16 16 15 15 14 14 13 13 12 12 12 12 11 11 11 11 11 10 10 10 10 10 10 10 10 10 10 10 11 11 11
19 18 18 19 20 18 17 16 16 16 16 16 15 15 15 15 14 14 13 13 12 12 12 12 11 11 11 11 10 10 10 10 9 9 9 9 9 9 9 10 10 10 10 10
18 18 18 20 20 19 18 17 16 15 15 15 15 14 14 14 14 13 13 13 12 12 12 11 11 11 11 10 10 10 9 9 9 9 9 9 9 9 9 9 9 9 9 9
Wind_Speed
7 8 9 10 6 1 5 6 7 5 4 4 3 1 1 1 2 3 4 5 6 7 6 6 7 8 9 9 9 9 9 8 6 4 3 2 2 2 2 1 2 3 4 5
8 8 7 6 5 3 5 7 7 6 3 3 3 2 4 4 2 1 1 2 4 4 5 6 7 8 9 10 10 10 10 8 7 4 2 1 1 2 2 2 2 2 4 5
7 6 7 7 6 6 5 6 6 6 5 3 4 7 7 7 6 5 3 2 1 2 3 5 6 7 9 10 10 9 9 9 8 6 3 2 2 2 2 2 2 2 3 4
4 5 7 7 6 5 6 3 4 6 7 5 3 8 8 7 9 9 8 6 4 2 0 2 3 6 8 9 8 9 9 9 8 7 5 4 3 3 2 2 2 2 2 3
5 6 7 5 3 2 4 3 4 4 6 7 4 7 8 7 8 8 8 7 6 4 2 0 1 3 5 6 7 8 8 8 8 7 6 5 4 3 2 2 2 3 2 3
5 4 2 2 3 3 6 6 5 4 5 6 3 5 6 5 5 6 8 8 8 6 4 3 2 1 3 4 6 7 8 8 8 7 7 7 5 4 3 3 3 3 2 2
7 5 4 3 5 5 6 6 6 6 5 6 3 3 6 6 5 6 7 8 9 8 6 5 4 2 2 3 5 7 8 8 8 8 8 7 6 5 5 4 3 3 3 2
8 8 5 4 2 4 5 4 3 5 7 7 4 5 7 5 5 6 7 8 10 10 9 8 6 4 1 2 4 6 7 8 8 8 8 7 6 5 4 4 4 3 3 3
6 6 5 2 0 1 4 2 2 3 6 6 7 7 7 6 7 8 9 10 12 11 10 8 7 5 3 1 2 4 6 6 7 7 7 7 7 6 5 5 5 4 4 3
3 7 5 5 4 4 2 2 3 3 6 5 7 7 6 5 5 7 9 10 11 10 10 10 8 7 5 3 1 2 4 5 5 6 6 5 6 6 6 6 5 5 5 4
2 5 7 6 2 3 4 3 2 2 1 4 6 5 3 3 4 5 7 8 9 10 10 9 8 7 6 5 3 1 2 3 4 5 6 6 6 6 7 7 6 6 6 5
1 3 6 4 3 2 1 1 3 3 3 1 3 4 5 4 4 5 6 7 8 9 9 9 9 9 8 6 5 3 1 2 3 4 5 6 6 6 7 7 7 7 7 6
2 4 6 6 5 4 3 2 1 1 3 4 4 5 6 6 6 6 6 7 7 9 9 10 10 10 9 8 6 5 3 2 2 3 5 5 6 7 7 7 7 7 7 7
2 4 5 4 1 4 5 5 5 5 5 5 4 4 7 7 6 6 6 7 8 9 9 10 10 10 10 9 8 6 5 4 2 2 4 5 6 7 7 7 7 8 7 8
3 4 2 1 2 2 4 6 8 8 7 7 5 5 7 8 8 7 6 7 8 9 9 10 10 10 10 10 9 8 7 5 3 3 3 5 6 6 7 7 7 8 8 8
2 3 4 4 3 4 6 8 9 9 7 7 6 5 5 8 9 8 7 7 7 8 8 8 9 10 10 10 10 9 8 7 5 4 4 5 6 6 7 8 8 8 9 9
3 5 6 6 3 5 10 10 12 9 8 8 9 5 10 10 10 9 7 6 6 6 6 7 8 9 9 10 10 10 9 8 7 6 6 6 6 7 7 8 8 9 9 10
3 6 5 5 5 8 1 3 3 6 5 6 3 7 11 10 9 7 6 6 5 5 5 5 6 7 7 8 8 8 8 8 8 8 8 7 7 7 7 8 8 9 10 10
4 5 5 5 7 6 3 4 5 6 5 6 7 9 11 11 10 7 5 4 4 4 3 3 4 5 6 8 8 8 8 9 9 9 9 9 9 8 8 8 9 9 10 10
4 5 7 6 6 5 3 6 4 4 5 6 9 12 13 13 9 6 8 6 4 3 2 2 2 4 6 7 7 8 8 9 10 10 10 10 10 10 9 10 10 9 9 10
7 7 10 10 8 5 4 6 6 6 2 9 10 12 14 11 3 7 9 7 5 4 2 1 1 2 4 5 6 7 8 9 9 9 10 10 10 10 10 10 9 9 9 9
9 8 9 8 9 6 8 8 7 1 5 8 9 11 11 7 5 8 8 7 6 4 3 2 0 1 2 4 6 7 8 9 9 9 9 10 10 10 10 10 9 9 9 9
7 6 5 7 3 4 7 5 2 2 4 6 8 9 9 8 8 8 7 7 6 5 4 3 2 2 2 3 5 7 7 8 9 10 10 10 11 10 10 10 10 9 8 8
6 4 4 5 6 5 6 5 5 5 5 5 7 8 9 9 8 8 7 7 6 6 5 4 3 3 4 4 5 6 7 8 10 10 11 11 11 11 11 9 9 9 9 9
5 7 6 7 5 5 8 9 7 6 6 5 6 8 9 9 9 8 7 7 7 6 5 5 5 5 6 6 6 7 7 9 10 11 11 11 11 11 11 10 9 10 9 9
8 9 8 7 6 6 6 7 8 8 8 8 8 8 9 9 9 8 8 7 7 7 6 6 6 7 7 7 8 8 8 9 10 11 11 10 10 10 11 11 11 9 11 12
Wind_Direction
170 182 180 176 181 146 171 172 156 137 140 186 196 253 32 93 171 200 197 202 209 213 204 199 201 200 199 199 200 194 187 181 175 178 207 236 257 267 267 306 339 334 343 348
166 179 164 157 173 182 175 161 144 129 131 175 137 102 79 73 81 92 177 186 199 202 196 195 201 200 200 197 199 197 193 186 185 187 201 229 288 287 296 274 271 311 332 343
154 133 155 172 176 173 160 153 141 135 142 155 147 111 92 84 85 76 61 52 109 197 201 195 199 201 201 201 202 200 194 188 187 181 180 194 217 248 238 249 271 302 318 330
130 139 165 172 173 174 134 116 144 157 167 133 154 119 91 85 85 68 57 50 48 57 192 198 200 198 204 204 202 201 193 193 188 185 199 220 249 280 298 298 292 280 286 309
131 157 167 165 150 173 101 120 139 153 152 138 128 128 105 92 77 57 46 40 38 39 41 59 210 205 200 195 194 198 192 192 189 198 200 221 239 264 277 274 278 285 293 297
113 150 179 120 109 141 137 138 130 156 172 136 91 129 110 78 52 44 43 42 38 37 45 52 67 148 173 181 185 190 190 193 193 202 210 222 235 243 255 262 280 281 284 287
135 145 156 164 147 160 196 180 160 164 164 130 106 126 103 69 42 34 36 42 43 42 44 46 50 67 135 175 184 188 192 196 198 207 217 221 232 245 253 266 269 281 293 297
143 139 157 184 209 164 187 226 201 169 155 140 156 134 107 74 61 56 56 52 48 44 41 40 39 40 68 166 186 196 200 203 203 211 220 225 228 240 252 254 268 273 289 305
150 129 120 134 170 196 167 169 352 129 138 150 141 129 121 101 81 63 57 51 46 42 40 41 41 39 42 96 184 201 204 209 209 215 219 223 229 234 241 245 254 267 272 283
162 139 134 142 148 61 18 132 191 189 169 159 153 161 153 127 72 62 54 49 44 41 40 40 40 40 41 50 111 192 210 218 217 219 220 223 229 230 237 246 249 261 268 267
213 164 152 169 197 150 152 158 138 133 201 188 169 150 92 103 79 70 61 52 46 43 39 37 37 39 43 48 55 107 205 224 226 228 226 229 231 233 232 240 245 254 261 253
235 203 161 139 87 0 266 186 216 205 160 206 183 128 91 104 96 86 75 63 55 50 47 44 42 42 42 38 35 22 338 247 244 243 236 238 238 236 239 239 244 248 254 257
184 212 178 166 170 173 162 135 199 192 185 203 208 141 125 123 112 100 90 78 68 60 54 50 45 41 36 30 26 24 360 322 274 255 251 248 246 245 247 247 245 249 250 251
265 229 240 228 158 169 176 171 192 216 223 215 218 168 164 160 140 122 106 91 79 68 57 50 45 41 35 30 22 20 11 352 318 273 263 262 259 256 257 256 251 249 248 247
253 234 212 124 107 189 205 198 203 227 244 247 228 204 191 172 157 140 123 105 87 71 59 51 45 40 35 30 24 21 15 5 344 311 289 284 282 275 269 265 257 254 252 251
244 215 194 190 179 223 237 228 223 230 239 240 228 222 166 151 152 145 133 116 96 78 63 53 45 39 34 29 24 23 21 14 4 346 323 312 298 288 277 270 264 258 254 254
196 215 227 228 191 246 249 236 224 222 221 222 228 206 154 160 159 152 141 127 107 89 71 55 44 36 29 27 24 24 21 19 17 7 351 336 318 303 290 280 270 262 258 255
212 210 226 240 220 240 178 97 195 204 211 216 208 154 164 158 150 146 144 136 120 103 83 62 46 37 29 25 24 22 22 20 17 11 1 349 333 316 303 289 276 267 263 257
233 207 218 230 236 255 209 178 182 194 204 193 179 159 156 148 150 155 156 148 131 116 94 70 43 34 29 23 16 14 17 16 13 7 357 348 339 327 315 303 291 281 271 265
186 219 224 219 232 242 160 143 166 207 204 170 171 163 162 166 187 180 167 164 152 141 119 82 50 35 28 18 9 9 10 9 5 357 349 344 339 332 323 315 306 294 280 270
176 196 217 223 234 249 128 145 169 207 176 158 173 172 174 188 204 135 154 165 165 162 156 142 59 30 18 5 1 3 5 3 356 347 343 341 339 333 328 323 317 305 293 282
190 190 203 211 225 226 144 163 194 131 108 158 174 179 185 184 145 146 161 170 177 180 181 188 235 2 2 355 351 354 358 352 344 341 339 338 336 334 332 327 321 316 306 291
211 211 207 213 216 89 164 178 146 140 162 168 179 182 184 180 177 176 181 186 193 198 200 211 249 295 321 336 340 340 344 339 335 334 334 332 331 332 331 328 324 320 315 305
195 199 218 234 232 206 200 209 201 198 191 183 186 187 189 193 193 195 198 203 207 212 216 226 247 273 296 313 318 320 325 325 325 327 328 328 328 329 327 325 322 321 317 312
197 187 212 233 228 215 216 212 208 202 202 196 194 197 201 202 203 206 211 214 216 218 223 232 250 271 285 295 303 310 315 316 317 317 318 321 324 322 319 317 315 311 308 306
204 203 208 232 218 215 211 202 202 208 211 207 204 207 208 208 209 213 219 218 220 226 233 242 255 269 281 290 296 304 308 308 308 311 314 314 315 315 314 312 309 292 278 279
Height
1505 1504 1504 1502 1502 1502 1501 1502 1504 1505 1506 1507 1506 1506 1505 1507 1508 1509 1510 1511 1512 1514 1517 1518 1519 1521 1523 1524 1526 1528 1529 1530 1530 1531 1531 1531 1530 1529 1528 1527 1525 1523 1522 1521
1504 1503 1500 1502 1503 1503 1502 1503 1504 1505 1506 1505 1505 1505 1504 1507 1507 1508 1508 1509 1511 1513 1515 1516 1518 1519 1521 1523 1525 1527 1528 1529 1530 1530 1530 1530 1529 1529 1527 1526 1524 1523 1522 1521
1497 1500 1502 1503 1504 1504 1502 1502 1503 1505 1506 1505 1505 1507 1506 1506 1507 1509 1509 1509 1510 1512 1514 1515 1516 1517 1519 1521 1523 1525 1527 1527 1528 1529 1529 1528 1528 1527 1527 1526 1524 1523 1522 1520
1499 1501 1502 1502 1503 1501 1505 1503 1503 1505 1503 1507 1504 1515 1509 1506 1506 1508 1509 1510 1510 1512 1513 1514 1515 1516 1517 1519 1521 1524 1525 1526 1527 1527 1528 1528 1528 1528 1527 1526 1524 1523 1521 1520
1500 1501 1501 1502 1502 1502 1504 1504 1503 1502 1501 1503 1503 1506 1511 1506 1509 1509 1510 1511 1511 1512 1513 1513 1514 1515 1516 1517 1519 1521 1523 1524 1525 1526 1526 1526 1526 1526 1526 1524 1523 1523 1521 1520
1499 1501 1500 1500 1502 1503 1505 1505 1504 1502 1499 1512 1511 1509 1517 1511 1512 1511 1512 1512 1512 1512 1512 1513 1513 1513 1514 1516 1517 1519 1520 1522 1523 1524 1524 1525 1525 1525 1524 1524 1523 1522 1521 1520
1500 1500 1501 1502 1503 1505 1503 1503 1512 1514 1515 1517 1512 1510 1518 1514 1515 1515 1514 1514 1514 1513 1512 1512 1512 1513 1513 1514 1515 1517 1518 1520 1521 1522 1523 1523 1523 1524 1523 1523 1522 1521 1521 1520
1499 1503 1499 1499 1498 1498 1499 1498 1507 1517 1518 1516 1511 1511 1515 1515 1517 1517 1517 1516 1515 1513 1513 1512 1512 1512 1513 1513 1514 1515 1517 1518 1519 1520 1521 1521 1521 1521 1522 1521 1521 1520 1520 1519
1493 1500 1498 1499 1498 1496 1498 1497 1496 1498 1504 1510 1511 1511 1513 1514 1516 1517 1517 1516 1516 1515 1514 1513 1513 1512 1512 1512 1513 1514 1515 1516 1517 1518 1519 1519 1519 1520 1520 1519 1519 1519 1519 1518
1486 1496 1497 1499 1499 1501 1497 1497 1497 1500 1512 1519 1519 1514 1514 1514 1516 1517 1518 1518 1518 1517 1516 1514 1513 1513 1512 1512 1512 1513 1514 1515 1516 1516 1516 1517 1517 1517 1517 1518 1518 1518 1517 1516
1487 1492 1498 1497 1497 1497 1501 1501 1499 1500 1502 1512 1521 1519 1512 1515 1518 1519 1520 1521 1520 1519 1517 1516 1514 1513 1513 1512 1512 1512 1513 1513 1514 1514 1514 1514 1515 1515 1515 1515 1515 1515 1515 1515
1490 1487 1494 1497 1499 1499 1497 1497 1497 1503 1508 1505 1509 1519 1516 1517 1520 1521 1522 1522 1522 1520 1519 1517 1515 1514 1513 1513 1512 1512 1512 1512 1512 1512 1512 1513 1513 1513 1513 1513 1513 1513 1513 1513
1491 1490 1499 1504 1504 1501 1499 1501 1500 1498 1501 1505 1511 1518 1516 1518 1521 1523 1523 1523 1522 1521 1520 1518 1516 1515 1514 1513 1512 1512 1511 1511 1511 1510 1511 1511 1511 1511 1511 1511 1511 1511 1511 1511
1494 1489 1494 1502 1497 1496 1500 1503 1502 1499 1502 1505 1505 1509 1514 1516 1519 1522 1523 1523 1523 1522 1521 1519 1518 1516 1515 1513 1512 1512 1511 1510 1509 1509 1509 1509 1509 1508 1508 1509 1508 1508 1508 1508
1492 1490 1492 1495 1497 1497 1498 1500 1502 1500 1497 1500 1500 1504 1507 1512 1518 1521 1522 1523 1523 1522 1521 1520 1519 1517 1516 1514 1512 1511 1510 1509 1508 1507 1507 1506 1506 1506 1505 1505 1505 1505 1505 1505
1492 1492 1494 1498 1499 1499 1499 1498 1498 1499 1499 1499 1502 1505 1506 1513 1517 1520 1521 1522 1522 1522 1522 1521 1519 1518 1516 1515 1513 1511 1510 1508 1507 1506 1505 1505 1504 1503 1502 1502 1502 1501 1501 1501
1492 1491 1495 1496 1499 1500 1499 1491 1494 1496 1496 1498 1500 1501 1508 1512 1515 1518 1520 1521 1522 1522 1522 1521 1519 1518 1517 1515 1513 1512 1510 1508 1507 1505 1504 1503 1502 1500 1499 1499 1498 1497 1497 1497
1493 1492 1493 1495 1500 1507 1490 1492 1492 1495 1496 1497 1499 1502 1507 1511 1516 1518 1520 1521 1521 1521 1521 1520 1519 1518 1517 1515 1514 1512 1510 1508 1507 1505 1503 1501 1499 1498 1496 1495 1494 1493 1493 1492
1497 1495 1495 1496 1498 1493 1491 1492 1493 1494 1495 1496 1499 1503 1508 1512 1515 1517 1519 1519 1520 1520 1520 1519 1519 1518 1516 1515 1513 1512 1510 1508 1506 1503 1501 1499 1497 1495 1493 1491 1490 1489 1488 1487
1500 1496 1494 1497 1499 1496 1487 1489 1493 1494 1494 1496 1498 1502 1506 1509 1509 1512 1516 1517 1518 1518 1518 1518 1517 1516 1515 1513 1512 1511 1509 1507 1504 1501 1499 1497 1494 1492 1490 1488 1486 1484 1483 1481
1497 1497 1495 1493 1493 1483 1486 1490 1493 1496 1490 1494 1496 1500 1503 1505 1505 1509 1512 1514 1516 1516 1516 1516 1515 1514 1513 1511 1510 1509 1507 1504 1502 1499 1497 1494 1492 1489 1487 1484 1482 1480 1478 1476
1485 1488 1490 1490 1492 1487 1487 1489 1489 1487 1490 1492 1495 1499 1502 1504 1506 1508 1510 1512 1513 1513 1513 1513 1513 1512 1511 1509 1508 1507 1504 1502 1499 1497 1494 1491 1489 1486 1483 1481 1478 1476 1473 1471
1482 1480 1480 1481 1481 1483 1485 1486 1488 1489 1490 1492 1495 1498 1500 1502 1504 1506 1508 1509 1510 1511 1511 1510 1510 1509 1508 1507 1505 1504 1501 1499 1496 1494 1491 1489 1486 1483 1480 1477 1474 1472 1469 1467
1480 1485 1483 1481 1479 1483 1485 1486 1487 1489 1490 1492 1494 1496 1498 1500 1502 1503 1505 1506 1507 1507 1507 1507 1507 1506 1505 1504 1502 1500 1498 1496 1493 1491 1488 1485 1483 1480 1477 1474 1471 1468 1465 1463
1476 1481 1479 1478 1478 1481 1482 1483 1485 1487 1488 1490 1491 1493 1495 1497 1498 1500 1501 1502 1503 1503 1503 1503 1503 1502 1501 1500 1498 1497 1494 1492 1490 1487 1485 1482 1479 1476 1472 1470 1467 1464 1461 1459
1474 1474 1475 1472 1473 1475 1477 1480 1482 1484 1485 1487 1488 1490 1492 1493 1495 1496 1497 1498 1499 1499 1499 1499 1499 1498 1497 1496 1494 1492 1490 1488 1486 1483 1481 1478 1475 1472 1468 1465 1462 1458 1456 1453